Regional Weather Roundup
Issued by NWS Albany, NY

Current Version | Previous Version | Text Only | Print | Product List | Glossary Off
Versions: 1 2 3 4 5 6 7 8 9 10 11 12 13 14 15 16 17 18 19 20 21 22 23 24 25 26 27 28 29 30 31 32 33 34 35 36 37 38 39 40 41 42 43 44 45 46 47 48 49 50
701 ASUS41 KALY 141410 RWRALY NEW YORK STATE HOURLY WEATHER ROUNDUP NATIONAL WEATHER SERVICE ALBANY NY 900 AM EST SAT DEC 14 2019 NOTE: "FAIR" INDICATES FEW OR NO CLOUDS BELOW 12,000 FEET WITH NO SIGNIFICANT WEATHER AND/OR NO OBSTRUCTIONS TO VISIBILITY. NYZ032-033-038>043-046>054-057>066-NYZ062>081-082-084-141500- EAST CITY SKY/WX TMP DP RH WIND PRES REMARKS ALBANY CLOUDY 43 40 89 CALM 29.53F FOG GLENS FALLS CLOUDY 41 40 96 N8 29.53F POUGHKEEPSIE CLOUDY 40 39 97 NE3 29.47F FOG NEWBURGH LGT RAIN 41 41 100 VRB6 29.48F VSB 1/4 MONTGOMERY CLOUDY 44 43 96 NE6 29.47F FOG WHITE PLAINS DRZL/FOG 51 50 96 E8 29.43F VSB 1/2 ISLIP FOG 57 57 100 S9 29.45F VSB 1/8 NEW YORK CITY FOG 50 48 93 NE6 29.43F VSB 3/4 CENTRAL PARK CLOUDY 49 48 97 CALM 29.46F FOG $$ NYZ005>009-017-018-044>046-055-056-141500- CENTRAL CITY SKY/WX TMP DP RH WIND PRES REMARKS FULTON LGT RAIN 42 39 89 NE3 29.48F FOG SYRACUSE LGT RAIN 40 38 93 CALM 29.47F FOG ROME CLOUDY 38 38 100 CALM 29.49F FOG ELMIRA FOG 37 37 100 SW5 29.46F VSB 3/4 WCI 33 BINGHAMTON FOG 41 40 96 E6 29.44F VSB<1/4 MONTICELLO LGT RAIN 45 44 97 E6 29.47F FOG $$ NYZ026>034-041>043-087-141500- NORTH CITY SKY/WX TMP DP RH WIND PRES REMARKS WATERTOWN CLOUDY 39 39 100 NE7 29.50F FOG WCI 34 FORT DRUM NOT AVBL OGDENSBURG CLOUDY 37 36 93 NE8 29.54F FOG WCI 31 MASSENA CLOUDY 38 36 92 NE12 29.59F FOG WCI 30 SARANAC LAKE CLOUDY 41 39 93 NE8 29.51F PLATTSBURGH LGT RAIN 39 39 100 NW3 29.61F FOG $$ NYZ001>004-010>016-019>021-085-141500- WEST CITY SKY/WX TMP DP RH WIND PRES REMARKS NIAGARA FALLS RAIN 37 36 96 N10 29.50F FOG WCI 30 BUFFALO LGT RAIN 37 36 96 N8 29.49F VSB 1 WCI 31 DUNKIRK LGT RAIN 38 36 92 N12 29.48F FOG WCI 30 JAMESTOWN RAIN 36 34 93 N13 29.44F FOG WCI 27 WELLSVILLE FOG 36 36 100 E3 29.42F VSB<1/4 ROCHESTER LGT RAIN 39 37 92 E5 29.48F FOG PENN YAN FOG 38 37 97 CALM 29.47F VSB 1/2 $$ KEY WCI = WIND CHILL INDEX VSB = VISIBILITY HX = HEAT INDEX $$

USA.gov is the U.S. government's official web portal to all federal, state and local government web resources and services.